Location: Salisbury
(38.3600°N, 75.6000°W)
Time: 12:27:20
(UTC-05:00)

Daily predictions for brighter satellites

Satellite Brightness Start Highest point End
(mag) Time Altitude Azimuth Time Altitude Azimuth Time Altitude Azimuth
COSMOS 2441 4.5 17:33:41 10° SSE 17:38:26 57° ENE 17:43:11 10° N
CORIOLIS 4.1 17:33:15 10° SSE 17:38:34 79° ENE 17:43:58 10° N
SMAP 3.1 17:34:06 10° SSE 17:38:45 88° WSW 17:43:26 10° NNW
OTV 4 3.8 17:42:36 10° SW 17:43:26 11° SSW 17:44:15 10° SSW
Cosmos 1666 Rocket 4.5 17:39:50 10° SSE 17:43:31 27° E 17:47:14 10° NNE
CENTAUR R/B 4.4 17:39:12 10° W 17:44:03 22° NW 17:49:21 10° NNE
Lacrosse 4 Rocket 2.7 17:48:35 10° N 17:51:33 19° NE 17:54:31 10° E
Cosmos 1626 2.7 17:50:01 10° SSE 17:53:29 37° E 17:56:58 10° NNE
USA 229 DEB 4.0 17:50:24 10° S 17:56:53 48° ESE 18:03:27 10° NE
USA 229 4.0 17:50:31 10° S 17:56:59 47° ESE 18:03:33 10° NE
Cosmos 1151 Rocket 4.1 17:56:04 10° NNW 18:00:13 49° W 18:04:22 10° SSW
Resurs 01 Rocket 3.4 17:58:38 10° E 18:00:33 13° ENE 18:02:29 10° NE
Cosmos 2219 Rocket 4.3 17:58:09 10° WSW 18:02:39 24° NW 18:07:09 10° N
Cosmos 2058 3.5 18:00:07 10° SSW 18:04:11 61° W 18:08:14 10° N
Cosmos 1184 Rocket 3.3 18:02:16 10° SSE 18:05:23 37° E 18:08:29 10° NNE
MONITOR-E 4.4 18:05:07 10° S 18:08:16 74° W 18:11:26 10° NNW
Cosmos 1726 4.1 18:05:09 10° NNW 18:08:36 34° W 18:12:01 10° SSW
Cosmos 2279 Rocket 4.1 18:02:44 10° N 18:09:00 86° W 18:15:14 10° S
Iridium 4 Rocket 4.1 18:06:03 10° SE 18:09:38 25° E 18:13:05 10° NNE
Cosmos 1603 4.2 18:07:13 10° S 18:12:19 37° ESE 18:17:25 10° NE
Cosmos 2333 Rocket 4.2 18:08:55 10° WSW 18:13:31 25° WNW 18:18:09 10° N
Cosmos 1461 4.1 18:10:31 10° SW 18:14:29 40° NW 18:18:20 10° NNE
Aureole 1 Rocket 4.0 18:09:54 10° S 18:15:08 57° ESE 18:22:03 10° NNE
FREGAT/IRIS 3.8 18:12:53 10° SE 18:15:21 23° ENE 18:17:52 10° NNE
Lacrosse 5 rocket 3.4 18:13:43 10° WNW 18:17:03 28° SW 18:20:32 10° S
DMSP B5D1-3 4.4 18:13:55 10° NNE 18:19:01 72° ESE 18:24:06 10° S
Cosmos 2278 Rocket 4.0 18:15:05 10° NW 18:20:09 35° WSW 18:25:13 10° SSW
Cosmos 1242 Rocket 3.6 18:17:32 10° NNE 18:20:22 23° ENE 18:23:11 10° SE
Cosmos 1805 Rocket 3.9 18:16:58 10° SSW 18:21:24 71° W 18:25:51 10° N
Tiangong 1 1.7 18:18:41 10° SW 18:21:29 38° SSE 18:22:42 25° E
Cosmos 1455 2.2 18:18:11 10° N 18:21:58 59° E 18:25:44 10° SSE
Cosmos 1356 Rocket 3.3 18:19:25 10° S 18:23:23 84° W 18:27:25 10° N
SKYMED 2 4.0 18:22:00 10° N 18:26:18 63° WNW 18:30:34 10° SSW
Nadezhda 4 Rocket 3.9 18:20:09 10° S 18:26:22 75° E 18:32:42 10° N
Cosmos 1538 Rocket 4.4 18:25:07 10° SSW 18:30:22 65° WNW 18:35:42 10° NNE
Cosmos 2242 Rocket 3.7 18:26:29 10° N 18:30:48 49° E 18:35:08 10° SSE
Sich 1 3.1 18:27:45 10° S 18:32:12 84° W 18:36:39 10° N
Coronas F rocket 1.0 18:34:41 10° S 18:37:03 75° W 18:37:55 34° N
Cosmos 923 Rocket 3.9 18:33:00 10° S 18:38:09 65° ESE 18:42:58 12° NNE
SJ-6B 2.8 18:39:08 10° SSE 18:43:11 68° ENE 18:47:19 10° N
Cosmos 1633 Rocket 3.3 18:39:38 10° SSW 18:44:01 71° W 18:48:25 10° N
Cosmos 1680 Rocket 3.5 18:39:05 10° S 18:44:10 55° ESE 18:47:47 19° NNE
Cosmos 2369 Rocket 3.1 18:42:29 10° N 18:47:04 27° NE 18:47:04 27° NE
NOSS 3-1 (C) 3.8 18:42:47 10° S 18:48:02 39° ESE 18:50:00 30° ENE
Delta 2 Rocket 4.4 18:45:55 10° SSW 18:48:36 22° SSE 18:48:47 22° SSE
Cosmos 1092 Rocket 3.9 18:43:27 10° S 18:49:46 82° E 18:56:08 10° N
SL-16 R/B 3.6 18:46:14 10° SW 18:51:23 36° WNW 18:56:35 10° N
Lacrosse 5 4.0 18:54:44 10° N 18:56:21 11° NNE 18:56:21 11° NNE
USA 215 3.4 18:56:43 30° E 18:59:47 53° NE 19:06:07 10° NW
ALOS 2.2 18:56:23 10° SSE 19:00:57 61° ENE 19:05:34 10° N
Cosmos 1862 Rocket 3.3 19:05:24 10° N 19:09:47 76° E 19:14:06 10° SSE
FENGYUN 3A 3.5 19:05:19 10° SSE 19:10:39 74° ENE 19:16:02 10° N
BREEZE-M DEB (TANK) 4.2 19:06:50 10° SSW 19:11:06 49° ESE 19:15:10 33° ENE
Cosmos 292 Rocket 4.1 19:06:43 10° SSW 19:11:26 65° WNW 19:14:24 22° N
Cosmos 2195 Rocket 4.3 19:05:53 10° S 19:11:59 80° E 19:18:10 10° N
Genesis I 3.7 19:09:41 10° SSW 19:12:42 49° S 19:12:42 49° S
Cosmos 2112 Rocket 4.0 19:15:48 10° SSW 19:21:00 78° WNW 19:23:17 35° N
Meteor 2-20 Rocket 4.4 19:15:14 10° S 19:21:11 58° E 19:22:00 54° ENE
Cosmos 1943 3.0 19:22:29 10° SSW 19:28:08 77° ESE 19:28:36 71° ENE
Lacrosse 4 Rocket 2.9 19:26:39 10° NW 19:30:19 33° WSW 19:33:02 16° SSW
ATLAS 5 CENTAUR R/B 3.8 19:26:47 10° NNW 19:29:30 22° N 19:29:30 22° N
Resurs 01 Rocket 2.1 19:32:08 10° S 19:36:30 59° W 19:40:54 10° NNW
Cosmos 1417 Rocket 4.3 19:33:57 10° N 19:40:09 84° E 19:46:17 10° S
H-2A ROCKET BODY 3.4 19:28:06 10° W 19:43:56 40° SSW 19:45:25 35° S
Cosmos 1943 Rocket 4.2 19:43:29 10° N 19:44:33 15° N 19:44:33 15° N
Spot 2 Rocket 4.3 19:45:55 10° S 19:50:46 48° W 19:55:39 10° NNW
Cosmos 1655 Rocket 4.2 19:44:33 10° SSW 19:50:54 69° W 19:57:15 10° N
CZ-4C R/B 4.2 19:53:11 10° NNW 19:56:24 24° N 19:56:24 24° N
NOSS 3-1 (A) 3.7 19:55:30 10° SW 20:00:05 59° SW 20:00:05 59° SW
Cosmos 2369 Rocket 3.9 20:26:06 10° NW 20:28:56 27° NW 20:28:56 27° NW
USA 215 4.3 20:44:05 39° W 20:44:05 39° W 20:48:59 10° WNW
